Hourly Data Report for October 20, 2015

All times are specified in Local Standard Time (LST). Add 1 hour to adjust for Daylight Saving Time where and when it is observed.

KAMLOOPS A
BRITISH COLUMBIA

50°42'09.000" N
120°26'55.000" W
345.30 m
1163781
71887
YKA

Download Data

Hourly Data (October 2015)
Hourly Data Report for October 20, 2015
Temp Definition
°C
Dew Point Temp Definition
°C
Rel Hum Definition
%
Wind Dir Definition
10's deg

Wind Spd Definition
km/h
Visibility Definition
km
Stn Press Definition
kPa
Hmdx Definition


Wind Chill Definition


Weather Definition


TIME
00:00 Legend Double Dagger 9.6 5.8 77 27 28 64.4 97.96     LegendNANA
01:00 Legend Double Dagger 8.6 5.2 79 24 12 64.4 98.05     Clear
02:00 Legend Double Dagger 7.3 5.0 85 25 9 64.4 98.14     LegendNANA
03:00 Legend Double Dagger 7.6 4.6 81 31 3 64.4 98.21     LegendNANA
04:00 Legend Double Dagger 6.4 4.1 85 22 4 64.4 98.25     Clear
05:00 Legend Double Dagger 5.2 3.4 88 31 5 64.4 98.31     LegendNANA
06:00 Legend Double Dagger 3.2 2.2 93 36 2 64.4 98.35     LegendNANA
07:00 Legend Double Dagger 2.8 2.1 95 7 3 64.4 98.41     Clear
08:00 Legend Double Dagger 4.5 3.6 94 36 2 64.4 98.45     LegendNANA
09:00 Legend Double Dagger 7.8 4.8 81 20 4 64.4 98.48     LegendNANA
10:00 Legend Double Dagger 9.1 4.7 74 17 5 64.4 98.46     Mostly Cloudy
11:00 Legend Double Dagger 10.7 4.4 65 17 6 64.4 98.44     LegendNANA
12:00 Legend Double Dagger 12.0 5.2 63 18 3 64.4 98.35     LegendNANA
13:00 Legend Double Dagger 13.3 5.8 60 21 4 64.4 98.31     Mostly Cloudy
14:00 Legend Double Dagger 14.4 5.8 56 12 5 64.4 98.22     LegendNANA
15:00 Legend Double Dagger 14.8 5.9 55 20 5 64.4 98.18     LegendNANA
16:00 Legend Double Dagger 14.2 6.4 59 36 3 64.4 98.15     Mostly Cloudy
17:00 Legend Double Dagger 11.2 7.2 76 36 2 64.4 98.15     LegendNANA
18:00 Legend Double Dagger 11.0 5.8 70 9 8 64.4 98.18     LegendNANA
19:00 Legend Double Dagger 10.3 6.1 75 11 9 64.4 98.18     Mostly Cloudy
20:00 Legend Double Dagger 10.3 5.7 73 11 14 64.4 98.17     LegendNANA
21:00 Legend Double Dagger 9.6 5.6 76 10 16 64.4 98.14     LegendNANA
22:00 Legend Double Dagger 8.3 5.3 81 10 13 64.4 98.15     Mostly Cloudy
23:00 Legend Double Dagger 8.3 5.3 81 10 16 64.4 98.12     LegendNANA

Notes on Data Quality.

Legend

  • E = Estimated
  • M = Missing
  • NA = Not Available
  • ‡ = Partner data that is not subject to review by the National Climate Archives
Date modified: